• în România
  • Lista ţărilor
  • Pe 7 zile
  • Temperatura apei
  • Hartă satelitară
  • Meteo pe hartă
  • Widget-uri
  • user-avatar
    Intrare

    Meteo pe oră la Malanville

    Astăzi, 18 Iunie, Luni

    Timp Temperatura Precipitaţii Vânt Presiune Umiditate
    00:00 +35°C° 0 mm 3 m/s 745 mmHg 49%
    01:00 +34°C° 1 mm 3 m/s 744 mmHg 52%
    02:00 +32°C° 1 mm 2 m/s 744 mmHg 55%
    03:00 +32°C° 1 mm 2 m/s 744 mmHg 58%
    04:00 +31°C° 0 mm 2 m/s 744 mmHg 59%
    05:00 +31°C° 0 mm 3 m/s 744 mmHg 60%
    06:00 +32°C° 0 mm 5 m/s 744 mmHg 58%
    07:00 +34°C° 0 mm 5 m/s 744 mmHg 53%
    08:00 +35°C° 0 mm 5 m/s 744 mmHg 49%
    09:00 +37°C° 0 mm 5 m/s 744 mmHg 44%
    10:00 +38°C° 0 mm 4 m/s 744 mmHg 40%
    11:00 +41°C° 0 mm 4 m/s 744 mmHg 35%
    12:00 +43°C° 0 mm 3 m/s 743 mmHg 30%
    13:00 +43°C° 0 mm 3 m/s 743 mmHg 28%
    14:00 +43°C° 0 mm 2 m/s 742 mmHg 25%
    15:00 +45°C° 0 mm 2 m/s 741 mmHg 23%
    16:00 +43°C° 0 mm 1 m/s 741 mmHg 24%
    17:00 +43°C° 0 mm 1 m/s 741 mmHg 26%
    18:00 +42°C° 0 mm 1 m/s 741 mmHg 27%
    19:00 +41°C° 0,1 mm 2 m/s 741 mmHg 30%
    20:00 +40°C° 0,1 mm 2 m/s 741 mmHg 33%
    21:00 +39°C° 0,1 mm 3 m/s 742 mmHg 36%
    22:00 +38°C° 0 mm 4 m/s 742 mmHg 40%
    23:00 +37°C° 0 mm 5 m/s 742 mmHg 44%

    Mâine, 19 Iunie, Marţi

    Timp Temperatura Precipitaţii Vânt Presiune Umiditate
    00:00 +36°C° 0 mm 6 m/s 742 mmHg 48%
    01:00 +35°C° 0 mm 6 m/s 742 mmHg 53%
    02:00 +34°C° 0 mm 7 m/s 741 mmHg 57%
    03:00 +32°C° 0 mm 7 m/s 741 mmHg 62%
    04:00 +32°C° 0,2 mm 7 m/s 742 mmHg 64%
    05:00 +30°C° 0,2 mm 6 m/s 742 mmHg 66%
    06:00 +30°C° 0,2 mm 6 m/s 742 mmHg 68%
    07:00 +30°C° 0 mm 6 m/s 743 mmHg 67%
    08:00 +32°C° 0 mm 6 m/s 743 mmHg 65%
    09:00 +32°C° 0 mm 7 m/s 744 mmHg 64%
    10:00 +32°C° 0 mm 7 m/s 744 mmHg 63%
    11:00 +32°C° 0 mm 7 m/s 744 mmHg 61%
    12:00 +33°C° 0 mm 7 m/s 744 mmHg 60%
    13:00 +34°C° 0 mm 6 m/s 743 mmHg 55%
    14:00 +35°C° 0 mm 6 m/s 743 mmHg 49%
    15:00 +37°C° 0 mm 5 m/s 742 mmHg 44%
    16:00 +37°C° 0 mm 5 m/s 742 mmHg 45%
    17:00 +36°C° 0 mm 4 m/s 742 mmHg 45%
    18:00 +36°C° 0 mm 3 m/s 741 mmHg 45%
    19:00 +35°C° 0 mm 4 m/s 742 mmHg 48%
    20:00 +35°C° 0 mm 4 m/s 743 mmHg 50%
    21:00 +34°C° 0 mm 4 m/s 744 mmHg 52%
    22:00 +33°C° 0,2 mm 5 m/s 744 mmHg 54%
    23:00 +33°C° 0,2 mm 5 m/s 744 mmHg 57%

    Poimâine, 20 Iunie, Miercuri

    Timp Temperatura Precipitaţii Vânt Presiune Umiditate
    00:00 +32°C° 0,2 mm 5 m/s 744 mmHg 59%
    01:00 +32°C° 0,1 mm 5 m/s 743 mmHg 60%
    02:00 +30°C° 0,1 mm 5 m/s 743 mmHg 62%
    03:00 +30°C° 0,1 mm 5 m/s 743 mmHg 63%
    04:00 +30°C° 0 mm 5 m/s 743 mmHg 64%
    05:00 +29°C° 0 mm 5 m/s 743 mmHg 66%
    06:00 +29°C° 0 mm 5 m/s 744 mmHg 67%
    07:00 +30°C° 0,1 mm 6 m/s 744 mmHg 64%
    08:00 +32°C° 0,1 mm 6 m/s 744 mmHg 61%
    09:00 +33°C° 0,1 mm 6 m/s 745 mmHg 57%
    10:00 +35°C° 0 mm 6 m/s 744 mmHg 52%
    11:00 +36°C° 0 mm 6 m/s 744 mmHg 47%
    12:00 +39°C° 0 mm 6 m/s 744 mmHg 42%
    13:00 +39°C° 0 mm 5 m/s 743 mmHg 39%
    14:00 +40°C° 0 mm 5 m/s 742 mmHg 37%
    15:00 +41°C° 0 mm 4 m/s 742 mmHg 35%
    16:00 +40°C° 0 mm 4 m/s 742 mmHg 36%
    17:00 +39°C° 0 mm 3 m/s 742 mmHg 37%
    18:00 +38°C° 0 mm 3 m/s 742 mmHg 38%
    19:00 +37°C° 0,3 mm 3 m/s 742 mmHg 41%
    20:00 +36°C° 0,3 mm 3 m/s 743 mmHg 44%
    21:00 +35°C° 0,3 mm 3 m/s 744 mmHg 47%
    22:00 +34°C° 0,5 mm 4 m/s 744 mmHg 51%
    23:00 +33°C° 0,5 mm 5 m/s 744 mmHg 55%

    21 Iunie, Joi

    Timp Temperatura Precipitaţii Vânt Presiune Umiditate
    00:00 +32°C° 0,5 mm 5 m/s 745 mmHg 59%
    01:00 +30°C° 1 mm 5 m/s 744 mmHg 64%
    02:00 +30°C° 1 mm 5 m/s 744 mmHg 68%
    03:00 +29°C° 1 mm 5 m/s 744 mmHg 72%
    04:00 +28°C° 0 mm 5 m/s 744 mmHg 73%
    05:00 +28°C° 0 mm 5 m/s 744 mmHg 73%
    06:00 +28°C° 0 mm 5 m/s 744 mmHg 74%
    07:00 +29°C° 0 mm 5 m/s 744 mmHg 69%
    08:00 +32°C° 0 mm 4 m/s 745 mmHg 64%
    09:00 +33°C° 0 mm 4 m/s 746 mmHg 59%
    10:00 +34°C° 0 mm 4 m/s 745 mmHg 55%
    11:00 +35°C° 0 mm 4 m/s 745 mmHg 51%
    12:00 +36°C° 0 mm 4 m/s 745 mmHg 47%
    13:00 +37°C° 0 mm 4 m/s 744 mmHg 45%
    14:00 +38°C° 0 mm 3 m/s 743 mmHg 42%
    15:00 +38°C° 0 mm 3 m/s 742 mmHg 40%
    16:00 +38°C° 0 mm 3 m/s 742 mmHg 41%
    17:00 +37°C° 0 mm 3 m/s 742 mmHg 42%
    18:00 +37°C° 0 mm 3 m/s 742 mmHg 43%
    19:00 +36°C° 0,4 mm 3 m/s 743 mmHg 47%
    20:00 +35°C° 0,4 mm 4 m/s 743 mmHg 51%
    21:00 +34°C° 0,4 mm 4 m/s 744 mmHg 55%
    22:00 +33°C° 0,7 mm 4 m/s 744 mmHg 59%
    23:00 +32°C° 0,7 mm 4 m/s 744 mmHg 63%

    22 Iunie, Vineri

    Timp Temperatura Precipitaţii Vânt Presiune Umiditate
    00:00 +30°C° 0,7 mm 4 m/s 744 mmHg 67%
    01:00 +30°C° 0,3 mm 4 m/s 743 mmHg 69%
    02:00 +29°C° 0,3 mm 5 m/s 743 mmHg 71%
    03:00 +29°C° 0,3 mm 5 m/s 743 mmHg 74%
    04:00 +28°C° 0,9 mm 5 m/s 743 mmHg 75%
    05:00 +28°C° 0,9 mm 5 m/s 744 mmHg 77%
    06:00 +28°C° 0,9 mm 6 m/s 744 mmHg 79%
    07:00 +28°C° 0,2 mm 5 m/s 745 mmHg 77%
    08:00 +28°C° 0,2 mm 5 m/s 745 mmHg 75%
    09:00 +28°C° 0,2 mm 5 m/s 746 mmHg 73%
    10:00 +29°C° 1,4 mm 4 m/s 745 mmHg 72%
    11:00 +29°C° 1,4 mm 3 m/s 745 mmHg 71%
    12:00 +29°C° 1,4 mm 2 m/s 745 mmHg 70%
    13:00 +29°C° 1,5 mm 2 m/s 744 mmHg 70%
    14:00 +29°C° 1,5 mm 2 m/s 744 mmHg 70%
    15:00 +29°C° 1,5 mm 1 m/s 743 mmHg 70%
    16:00 +29°C° 0,1 mm 1 m/s 743 mmHg 69%
    17:00 +30°C° 0,1 mm 1 m/s 743 mmHg 67%
    18:00 +30°C° 0,1 mm 2 m/s 743 mmHg 66%
    19:00 +29°C° 0 mm 1 m/s 744 mmHg 68%
    20:00 +29°C° 0 mm 1 m/s 744 mmHg 70%
    21:00 +29°C° 0 mm 1 m/s 745 mmHg 71%
    22:00 +28°C° 0 mm 1 m/s 745 mmHg 73%
    23:00 +28°C° 0 mm 2 m/s 745 mmHg 74%

    23 Iunie, Sâmbătă

    Timp Temperatura Precipitaţii Vânt Presiune Umiditate
    00:00 +28°C° 0 mm 2 m/s 744 mmHg 75%
    01:00 +28°C° 0 mm 2 m/s 744 mmHg 76%
    02:00 +27°C° 0 mm 3 m/s 744 mmHg 78%
    03:00 +27°C° 0 mm 3 m/s 744 mmHg 79%
    04:00 +27°C° 0 mm 3 m/s 744 mmHg 80%
    05:00 +27°C° 0 mm 3 m/s 745 mmHg 81%
    06:00 +27°C° 0 mm 4 m/s 745 mmHg 82%
    07:00 +28°C° 0 mm 4 m/s 745 mmHg 76%
    08:00 +29°C° 0 mm 4 m/s 746 mmHg 70%
    09:00 +30°C° 0 mm 4 m/s 746 mmHg 65%
    10:00 +32°C° 0 mm 4 m/s 746 mmHg 59%
    11:00 +34°C° 0 mm 3 m/s 745 mmHg 53%
    12:00 +35°C° 0 mm 3 m/s 745 mmHg 47%
    13:00 +35°C° 0 mm 3 m/s 744 mmHg 46%
    14:00 +36°C° 0 mm 2 m/s 743 mmHg 45%
    15:00 +36°C° 0 mm 2 m/s 743 mmHg 44%
    16:00 +35°C° 0 mm 2 m/s 743 mmHg 46%
    17:00 +35°C° 0 mm 2 m/s 743 mmHg 48%
    18:00 +34°C° 0 mm 3 m/s 744 mmHg 50%
    19:00 +33°C° 0,2 mm 3 m/s 744 mmHg 54%
    20:00 +33°C° 0,2 mm 3 m/s 745 mmHg 58%
    21:00 +32°C° 0,2 mm 4 m/s 745 mmHg 62%
    22:00 +30°C° 0,3 mm 3 m/s 745 mmHg 63%
    23:00 +30°C° 0,3 mm 3 m/s 745 mmHg 64%
    Arată mai mult